Location: Drocourt
(49.0571°N, 1.7669°E)
Time: 20:46:12
(UTC+00:00)

Transit 4A - Pass Details

Date: 17 April 2024
Orbit: 871 x 971 km, 66.8° (Epoch: 18 May)

Event Time Altitude Azimuth Distance (km) Brightness Sun altitude
Rises 21:49:45 0° 323° (NW) 3,472 12.3 -24.3°
Reaches altitude 10° 21:52:14 10° 322° (NW) 2,529 11.2 -24.5°
Maximum altitude 21:58:03 77° 238° (WSW) 902 7.7 -25.0°
Enters shadow 21:58:58 63° 176° (S) 977 7.7 -25.1°
Drops below altitude 10° 22:03:54 10° 153° (SSE) 2,536 - -25.5°
Sets 22:06:24 0° 152° (SSE) 3,482 - -25.7°
